Temperature
15 15 15 15 15 15 15 14 14 14 14 14 14 14 13 13 13 13 13 13 13 12 12 12 12 12 12 12 11 11 11 11 11 10 10 10 10 10 10 10 10 10 10
15 15 15 15 15 14 14 14 14 14 14 14 14 13 13 13 13 13 13 13 13 12 12 12 12 12 12 11 11 11 11 11 10 10 10 10 10 10 10 10 10 10 10
15 14 14 14 14 14 14 14 14 14 13 13 13 13 13 13 13 13 13 13 12 12 12 12 12 12 12 11 11 11 11 10 10 10 10 10 10 10 10 10 10 10 10
14 14 14 14 14 14 14 14 13 13 13 13 13 13 13 12 12 12 12 12 12 12 12 12 12 12 11 11 11 11 11 10 10 10 10 10 10 10 9 9 9 10 10
14 14 13 13 13 13 13 13 13 13 13 13 12 12 12 12 12 12 12 12 12 12 11 11 11 11 11 11 11 11 10 10 10 10 10 9 9 9 9 9 9 9 9
13 13 13 13 13 13 13 13 12 12 12 12 12 12 12 12 12 12 12 11 11 11 11 11 11 11 11 11 11 11 10 10 10 10 9 9 9 9 9 9 9 9 9
13 13 13 12 12 12 12 12 12 12 12 12 12 11 11 11 12 12 11 11 11 11 11 11 11 11 11 11 11 10 10 10 10 9 9 9 9 9 9 9 9 9 8
12 12 12 12 12 12 12 12 11 11 11 11 11 11 11 11 11 11 11 11 11 11 11 11 10 10 10 10 10 10 10 10 10 9 9 9 9 9 9 8 8 8 8
12 12 12 12 12 11 11 11 11 11 11 10 11 11 11 11 11 11 11 10 10 10 10 10 10 10 10 10 10 9 9 9 9 9 9 9 9 9 8 8 8 8 8
12 12 12 11 11 11 11 11 11 10 10 10 10 10 10 10 10 10 10 10 10 10 9 9 10 9 9 9 9 9 9 9 9 9 8 8 8 8 8 8 7 7 7
11 11 11 11 11 11 11 10 10 10 10 10 10 10 10 10 10 10 10 9 9 9 9 9 9 9 9 9 9 9 8 8 8 8 8 8 8 7 7 7 7 7 7
11 11 11 10 10 10 10 10 10 10 10 9 9 9 9 9 9 9 10 9 9 9 9 9 9 9 9 9 8 8 8 8 7 7 7 7 7 7 7 7 7 7 7
10 10 10 10 10 10 10 10 9 9 9 9 9 9 9 9 9 9 9 9 9 8 8 8 8 8 8 8 8 8 7 7 7 7 7 7 7 7 7 7 7 7 7
10 10 10 9 9 9 9 9 9 9 8 8 8 8 8 8 8 8 8 8 8 8 8 8 8 8 8 7 7 7 7 6 6 6 6 6 6 6 6 6 6 6 6
9 9 9 9 9 9 8 8 8 8 8 8 8 8 8 8 8 8 8 8 8 8 7 7 7 7 7 7 7 7 6 6 6 6 6 6 6 6 6 6 6 5 5
9 8 8 8 8 8 8 8 8 8 8 8 8 8 8 8 8 8 8 7 7 7 7 7 7 6 6 6 6 6 6 6 6 6 5 5 5 5 5 5 5 5 5
8 8 8 8 8 7 7 7 7 7 7 7 7 7 7 7 7 7 7 7 7 7 6 6 6 6 6 6 6 6 6 5 5 5 5 5 5 5 5 5 4 4 4
7 7 7 7 7 7 7 7 7 7 7 7 7 7 7 7 7 7 6 6 6 6 6 6 6 6 6 6 6 5 5 5 5 5 5 5 5 5 4 4 4 4 4
7 7 7 7 7 7 7 7 6 6 6 6 6 6 6 6 6 6 6 6 5 6 6 5 5 5 5 5 5 5 5 5 5 5 4 4 4 4 4 4 4 4 4
6 7 6 6 6 6 6 6 6 6 6 6 6 6 6 6 6 6 5 5 5 5 5 5 5 5 5 5 5 5 4 4 4 4 4 4 4 4 4 4 3 3 3
6 6 6 6 6 6 6 6 6 6 6 5 5 5 6 5 6 5 5 5 5 5 5 5 5 5 5 5 4 4 4 4 4 4 4 4 4 4 4 3 3 3 3
6 6 6 6 5 5 5 5 5 5 5 5 5 5 5 5 5 5 5 5 5 5 4 4 4 5 5 4 4 4 4 4 4 4 3 3 3 3 3 3 3 3 2
5 5 5 5 5 5 5 5 5 5 5 5 4 4 4 4 4 4 4 4 4 4 4 4 4 4 4 4 4 4 3 3 3 3 3 3 3 3 3 3 3 2 2
5 5 5 5 5 4 4 4 4 4 4 4 4 4 4 4 4 4 4 4 4 4 4 4 4 4 4 4 4 3 3 3 3 3 3 3 2 2 2 2 2 2 2
4 4 4 4 4 4 4 4 4 4 4 4 4 4 4 4 4 4 4 3 3 3 3 3 3 3 4 4 3 3 3 3 3 3 2 2 2 2 2 2 2 2 2
4 4 4 3 3 3 3 3 3 3 3 3 3 3 3 3 3 3 3 3 3 3 3 3 3 3 3 3 3 3 3 3 2 2 2 2 2 2 2 2 2 2 1
Wind_Speed
8 7 7 6 6 5 5 5 5 4 5 5 5 5 5 5 5 5 5 5 5 4 4 4 4 3 3 3 2 2 3 3 3 2 2 2 2 2 1 2 2 2 0
6 7 6 6 6 6 5 5 4 4 4 5 5 6 5 5 5 6 6 5 5 5 5 5 4 3 4 3 3 3 3 3 4 3 3 2 3 2 2 2 2 2 1
5 6 6 6 6 6 5 5 4 4 5 5 5 6 5 5 5 5 6 5 5 5 5 5 5 4 5 4 4 4 3 3 3 3 2 2 3 2 2 2 3 2 2
5 5 5 5 6 6 5 5 5 5 5 5 5 5 5 5 5 5 5 5 5 5 5 5 5 5 5 5 4 5 4 4 4 3 3 3 2 2 3 3 2 2 2
5 5 4 4 5 5 5 5 5 5 5 5 5 5 4 4 3 4 5 5 5 5 5 5 5 3 3 3 4 4 4 4 4 4 3 3 3 2 3 3 3 3 3
5 5 4 4 4 5 5 5 5 5 5 5 5 5 4 3 1 2 4 5 5 6 5 5 4 4 3 3 3 4 4 5 5 5 4 5 5 4 3 3 3 4 3
5 5 4 4 4 4 5 5 5 5 5 5 5 5 5 4 3 3 4 5 5 5 5 4 3 3 4 4 4 4 4 4 5 6 6 6 5 4 4 5 4 4 4
5 5 5 5 4 4 5 5 5 5 5 5 5 5 5 4 3 4 5 6 5 5 5 5 4 4 4 4 4 4 4 4 4 6 5 4 4 4 4 5 5 4 4
5 5 5 5 5 5 5 5 5 5 5 5 5 5 5 5 4 4 5 5 5 6 5 5 5 5 3 2 4 4 4 3 1 1 3 2 2 2 3 3 4 4 4
5 5 5 5 5 5 5 5 5 5 5 5 5 5 6 5 4 5 6 5 5 5 4 4 3 3 4 4 4 4 4 3 2 2 2 3 3 3 4 5 4 5 4
4 4 5 5 5 5 5 4 4 4 5 5 5 5 5 5 5 6 6 5 5 5 4 4 4 3 5 6 5 4 2 2 2 3 3 3 3 2 3 3 4 4 5
3 4 4 5 4 4 5 4 4 4 5 5 5 5 4 4 4 5 7 6 5 5 4 4 3 5 5 5 4 1 2 2 3 3 3 3 3 2 2 3 3 4 4
4 4 4 4 4 5 5 4 4 4 4 4 4 4 3 3 3 5 6 6 5 5 4 2 2 4 5 5 4 4 4 3 3 3 4 3 3 3 2 2 2 2 3
5 5 4 4 5 5 4 4 4 4 4 4 4 4 4 4 3 3 4 4 5 4 3 3 4 5 5 4 5 5 4 4 4 4 3 3 2 2 3 3 3 2 3
5 5 5 5 5 5 5 4 5 5 5 5 5 5 4 5 4 3 4 4 4 3 3 3 3 3 4 4 4 4 4 4 4 4 3 3 3 3 3 3 3 3 4
4 4 4 4 4 5 4 4 3 4 4 5 5 6 5 4 2 3 4 4 5 5 4 5 5 5 5 5 5 5 4 4 4 4 4 4 4 4 4 3 3 4 4
4 4 4 4 4 4 5 5 4 3 4 5 5 6 5 3 3 4 4 5 6 7 6 6 6 6 6 5 5 5 5 5 4 5 5 5 4 4 4 4 4 4 4
4 4 4 4 4 4 5 5 5 5 4 4 5 6 5 5 5 5 5 4 5 6 6 6 6 6 6 6 5 5 5 5 5 5 5 5 5 4 4 4 4 5 4
4 3 4 4 4 4 5 5 5 5 5 5 4 4 5 5 6 6 7 5 5 6 6 6 6 5 5 6 6 6 6 6 6 5 5 5 5 5 5 5 5 5 5
4 4 4 4 4 4 5 5 5 5 5 5 5 5 3 4 4 5 5 5 6 6 6 6 6 6 6 6 6 6 6 6 6 6 5 5 5 5 6 6 6 5 5
4 4 5 5 5 5 5 6 6 6 6 6 6 5 5 5 6 6 6 6 6 6 6 6 6 6 6 6 6 6 7 6 6 6 5 5 5 5 5 5 6 6 5
4 4 4 5 5 5 5 6 6 6 6 7 5 5 6 6 6 6 6 6 6 6 6 6 5 5 5 6 6 7 7 6 6 6 6 5 5 5 5 5 5 5 5
3 4 4 4 5 5 5 5 5 6 6 6 5 5 5 6 6 6 6 6 6 5 5 5 5 5 5 6 7 7 7 7 6 6 6 6 5 5 5 6 6 5 5
4 4 4 4 4 4 5 5 5 6 6 6 5 5 6 6 6 6 6 6 5 5 5 5 5 7 7 6 6 7 7 7 6 6 7 6 6 6 6 6 6 6 6
3 4 4 4 4 4 5 5 5 5 5 5 6 5 6 6 6 6 5 5 5 5 5 6 5 6 8 8 7 7 6 6 6 6 6 6 7 7 7 6 6 6 6
3 4 3 3 4 4 4 4 5 5 5 5 5 5 5 5 5 5 5 5 4 5 5 5 6 7 7 7 7 6 6 7 8 8 7 6 7 6 7 6 7 6 6
Wind_Direction
201 201 201 200 198 197 203 206 209 209 206 207 211 214 211 212 210 205 213 213 221 220 219 227 229 234 227 228 234 250 260 266 267 284 287 279 272 283 275 288 293 279 222
200 201 202 201 199 200 202 203 207 211 214 213 212 215 215 217 216 211 210 216 223 226 226 228 229 221 228 232 231 241 248 254 254 263 264 274 276 285 293 288 287 293 290
195 201 200 201 202 203 206 206 207 210 216 217 213 217 219 219 218 218 215 219 223 226 228 228 229 225 228 230 234 238 237 240 243 243 252 265 266 279 286 282 279 290 287
190 198 202 206 209 208 208 209 211 210 214 220 218 219 222 222 222 221 223 224 225 228 230 232 233 234 237 235 234 236 233 231 231 230 234 237 245 267 270 268 271 276 279
189 195 205 215 214 211 208 210 214 217 217 217 222 221 223 226 227 228 226 227 224 226 230 233 234 247 283 262 250 238 229 226 223 227 230 239 238 242 254 259 276 278 270
192 195 203 215 215 212 209 208 210 215 218 216 222 222 222 225 214 242 246 227 226 225 228 231 227 224 224 227 251 268 264 241 232 229 235 243 247 238 242 256 267 272 270
201 199 203 211 214 217 212 208 211 214 213 215 221 220 224 224 183 200 240 239 230 228 227 225 224 228 217 220 210 218 240 262 265 253 246 248 251 243 236 245 258 266 273
208 206 207 212 213 213 214 211 217 219 217 216 218 218 222 221 190 199 214 229 233 233 229 227 222 222 219 220 212 221 227 228 238 247 252 257 256 251 247 255 264 267 267
214 213 213 213 214 212 217 220 220 221 222 221 218 218 223 223 191 198 211 224 232 236 235 233 232 227 182 208 222 220 223 225 179 317 338 336 340 304 273 249 251 253 259
220 217 216 213 215 215 217 221 221 219 222 225 225 223 226 232 195 196 214 225 230 232 233 230 229 239 168 188 222 225 228 230 214 198 210 213 220 211 229 249 254 255 261
220 213 213 213 214 217 217 215 217 219 221 224 230 230 230 233 205 194 209 225 228 227 223 227 219 187 182 198 230 231 229 239 226 226 225 220 221 228 235 254 261 260 260
214 209 213 215 213 214 211 210 210 211 218 225 232 233 233 226 218 205 203 222 246 228 225 225 216 183 195 199 215 202 143 200 219 220 229 230 229 233 247 257 266 271 274
227 220 222 219 215 215 211 207 206 208 219 230 235 238 238 237 220 198 206 217 231 235 233 233 206 183 193 199 195 182 190 216 221 221 227 235 239 242 243 244 254 266 275
233 229 230 225 219 217 216 213 210 209 219 230 238 245 245 240 236 225 219 213 207 219 227 195 178 178 193 197 192 198 215 223 225 228 232 232 230 232 235 238 239 238 251
235 233 231 229 226 227 223 221 219 219 222 232 236 240 246 246 244 237 227 222 221 219 215 214 206 194 201 204 207 207 212 216 221 230 229 224 224 225 234 234 238 244 248
231 227 227 230 230 229 227 228 222 231 219 229 243 247 245 248 251 221 214 213 206 194 203 214 215 215 216 215 214 214 215 218 220 223 227 227 230 231 233 233 238 244 250
226 227 231 232 232 230 229 231 236 231 219 222 229 241 249 239 208 208 209 206 198 190 214 222 222 223 223 223 223 223 224 224 222 223 224 227 231 234 234 235 237 245 251
233 224 230 231 233 234 235 236 238 239 241 245 229 218 223 223 213 206 198 200 213 209 224 228 228 226 224 223 223 225 225 223 224 226 228 229 230 233 237 239 240 245 252
241 237 234 237 238 240 239 239 239 240 242 245 244 224 211 218 212 204 197 221 226 226 227 231 232 229 227 226 225 225 225 224 224 224 228 230 231 234 239 242 243 244 248
243 236 245 245 243 243 239 239 240 240 242 243 242 238 219 219 225 218 220 230 233 234 233 234 232 229 228 228 226 225 225 226 226 226 229 231 233 236 240 242 242 241 244
253 241 235 245 245 245 244 244 244 244 244 246 246 236 216 228 231 230 230 233 233 235 237 236 235 229 225 224 225 225 226 228 228 229 229 230 232 235 240 243 244 245 248
260 257 250 248 249 247 247 247 248 247 244 246 249 236 213 233 239 235 234 235 236 237 237 233 231 230 228 226 225 227 228 229 230 229 230 229 230 233 237 240 244 249 250
263 263 259 256 253 247 246 247 248 250 248 247 245 240 232 235 238 238 237 236 236 236 234 234 234 231 230 231 230 229 229 229 229 229 229 229 230 231 234 236 237 241 244
270 267 265 261 258 255 253 254 252 253 252 248 245 244 241 238 238 238 237 235 232 233 232 233 233 231 232 234 234 233 234 233 232 231 229 230 230 233 232 235 236 235 236
278 276 272 268 265 262 261 262 259 254 253 251 248 246 244 241 241 239 237 234 233 232 232 236 237 234 233 235 236 234 231 227 230 234 232 228 228 229 232 233 235 238 237
293 291 287 283 278 275 270 266 264 262 258 255 252 248 245 243 242 240 236 231 231 234 234 234 236 238 240 238 238 236 225 223 225 226 230 227 225 227 229 230 232 233 236
Height
1516 1518 1519 1520 1521 1523 1524 1525 1526 1527 1528 1529 1530 1531 1531 1532 1532 1532 1533 1533 1534 1534 1534 1534 1533 1533 1533 1532 1532 1532 1532 1532 1531 1530 1529 1528 1526 1526 1524 1524 1523 1521 1520
1513 1515 1516 1517 1518 1520 1521 1522 1523 1524 1525 1526 1527 1528 1529 1529 1530 1530 1530 1531 1531 1531 1531 1531 1531 1530 1530 1530 1529 1529 1529 1529 1529 1528 1527 1526 1525 1524 1523 1522 1521 1520 1519
1510 1512 1513 1514 1515 1516 1518 1519 1520 1521 1522 1523 1524 1525 1526 1526 1527 1527 1527 1528 1528 1528 1528 1528 1528 1528 1527 1527 1527 1527 1526 1526 1526 1525 1525 1524 1523 1522 1521 1520 1519 1518 1517
1507 1509 1510 1511 1512 1513 1514 1516 1517 1518 1519 1520 1521 1522 1522 1523 1524 1524 1524 1525 1525 1526 1526 1525 1525 1525 1525 1524 1524 1524 1523 1523 1523 1523 1522 1522 1521 1520 1519 1518 1518 1517 1516
1504 1505 1507 1508 1509 1510 1511 1512 1513 1514 1515 1516 1517 1518 1519 1519 1520 1520 1521 1521 1522 1522 1522 1522 1522 1522 1521 1521 1521 1521 1520 1520 1520 1520 1520 1519 1519 1518 1517 1516 1516 1515 1514
1501 1502 1503 1504 1505 1506 1507 1508 1509 1510 1511 1512 1513 1514 1515 1515 1516 1516 1517 1518 1518 1519 1519 1519 1519 1518 1517 1517 1517 1517 1517 1517 1517 1517 1517 1516 1516 1515 1514 1514 1513 1513 1513
1498 1499 1500 1501 1502 1502 1503 1505 1505 1506 1507 1508 1509 1510 1510 1511 1512 1513 1513 1514 1515 1515 1515 1515 1515 1514 1514 1514 1514 1513 1513 1513 1514 1514 1514 1513 1513 1512 1512 1511 1511 1511 1510
1495 1496 1497 1497 1498 1499 1500 1501 1502 1503 1504 1504 1505 1505 1506 1507 1508 1508 1509 1510 1511 1511 1511 1511 1511 1511 1510 1510 1510 1510 1510 1510 1510 1510 1510 1510 1510 1509 1509 1509 1508 1507 1507
1491 1492 1493 1494 1494 1495 1496 1497 1498 1499 1500 1501 1501 1501 1502 1503 1504 1504 1505 1506 1506 1507 1507 1507 1507 1507 1507 1507 1507 1507 1506 1506 1506 1506 1506 1505 1505 1505 1505 1505 1505 1505 1504
1487 1488 1489 1490 1490 1491 1492 1493 1494 1495 1496 1497 1497 1498 1498 1499 1499 1500 1500 1501 1502 1502 1502 1502 1502 1503 1503 1503 1503 1503 1503 1503 1503 1503 1502 1502 1502 1501 1501 1501 1501 1502 1501
1483 1484 1485 1486 1487 1488 1489 1489 1490 1491 1492 1493 1493 1494 1494 1495 1495 1495 1496 1497 1497 1497 1497 1498 1498 1498 1498 1499 1499 1499 1499 1499 1499 1499 1499 1499 1498 1498 1498 1497 1498 1498 1498
1480 1481 1482 1483 1483 1484 1485 1486 1487 1487 1488 1488 1489 1490 1490 1490 1491 1491 1491 1492 1493 1493 1493 1493 1493 1494 1494 1494 1495 1495 1495 1496 1496 1496 1496 1495 1495 1495 1494 1494 1494 1494 1494
1476 1477 1478 1479 1479 1480 1481 1482 1483 1483 1484 1485 1485 1485 1486 1486 1486 1487 1487 1488 1488 1489 1489 1489 1489 1489 1490 1490 1491 1491 1492 1492 1492 1492 1492 1492 1492 1491 1491 1491 1490 1490 1490
1472 1473 1474 1475 1476 1477 1477 1478 1479 1479 1480 1481 1481 1481 1482 1482 1482 1482 1483 1483 1483 1484 1485 1485 1485 1485 1486 1486 1487 1487 1488 1488 1488 1488 1488 1488 1488 1488 1487 1487 1487 1486 1486
1468 1469 1471 1471 1472 1473 1473 1474 1474 1475 1476 1477 1477 1477 1477 1477 1477 1478 1478 1479 1479 1480 1480 1481 1481 1481 1481 1482 1482 1483 1483 1484 1484 1484 1485 1485 1484 1484 1484 1484 1484 1483 1483
1464 1465 1466 1467 1468 1469 1469 1470 1470 1471 1471 1472 1473 1473 1473 1473 1473 1473 1474 1474 1475 1476 1476 1476 1476 1476 1477 1477 1478 1478 1479 1479 1480 1480 1481 1481 1481 1481 1481 1480 1480 1480 1480
1460 1461 1462 1463 1464 1464 1465 1465 1465 1466 1467 1467 1468 1468 1468 1468 1468 1468 1469 1470 1470 1471 1471 1471 1471 1472 1472 1473 1473 1474 1474 1475 1475 1476 1476 1477 1477 1477 1477 1477 1476 1476 1476
1457 1458 1459 1459 1460 1460 1461 1461 1462 1462 1462 1462 1463 1463 1463 1463 1463 1464 1464 1465 1465 1465 1466 1466 1467 1467 1467 1468 1468 1469 1470 1470 1471 1471 1472 1472 1472 1473 1473 1473 1472 1472 1472
1454 1454 1455 1455 1456 1456 1457 1457 1457 1457 1457 1457 1458 1458 1458 1458 1459 1459 1459 1459 1459 1459 1460 1461 1461 1462 1462 1463 1463 1464 1465 1465 1466 1466 1467 1467 1468 1468 1468 1468 1468 1468 1468
1449 1450 1450 1451 1452 1452 1452 1452 1452 1453 1453 1453 1453 1453 1453 1453 1453 1453 1454 1454 1454 1455 1455 1456 1456 1456 1457 1457 1458 1459 1459 1460 1460 1461 1461 1462 1463 1463 1463 1463 1463 1463 1463
1445 1445 1446 1446 1447 1447 1447 1448 1448 1448 1448 1448 1448 1448 1448 1448 1448 1448 1449 1449 1449 1450 1450 1450 1451 1451 1451 1452 1453 1453 1454 1454 1454 1455 1456 1456 1457 1458 1458 1458 1459 1459 1458
1441 1441 1441 1442 1442 1442 1442 1443 1443 1443 1443 1443 1443 1443 1443 1443 1443 1443 1444 1444 1444 1444 1445 1445 1445 1445 1446 1446 1447 1448 1448 1448 1449 1449 1450 1451 1452 1452 1453 1453 1453 1453 1453
1437 1437 1437 1437 1437 1437 1437 1437 1438 1437 1437 1437 1437 1437 1437 1438 1438 1438 1438 1438 1439 1439 1440 1440 1440 1440 1441 1441 1442 1442 1442 1442 1443 1444 1445 1445 1446 1447 1448 1448 1448 1448 1449
1433 1433 1433 1433 1433 1432 1432 1432 1432 1432 1432 1432 1432 1432 1432 1432 1433 1433 1433 1433 1434 1434 1434 1434 1434 1435 1435 1435 1436 1436 1437 1437 1438 1438 1439 1440 1441 1442 1442 1443 1443 1443 1444
1430 1430 1429 1429 1428 1428 1428 1427 1427 1427 1427 1427 1427 1427 1427 1427 1427 1427 1428 1428 1428 1428 1428 1429 1429 1429 1429 1430 1430 1431 1431 1432 1432 1433 1434 1435 1435 1436 1437 1438 1438 1439 1439
1427 1426 1426 1425 1424 1424 1423 1423 1422 1422 1422 1422 1422 1422 1422 1422 1422 1422 1422 1422 1423 1423 1423 1423 1424 1424 1424 1424 1425 1425 1426 1426 1427 1428 1429 1429 1430 1431 1432 1432 1433 1433 1434